TimePST,TemperatureF,Dew PointF,Humidity,Sea Level PressureIn,VisibilityMPH,Wind Direction,Wind SpeedMPH,Gust SpeedMPH,PrecipitationIn,Events,Conditions,WindDirDegrees,DateUTC
12:53 AM,-9999,-9999,N/A,30.19,9.0,Calm,Calm,-,N/A,,Clear,0,2013-01-08 08:53:00
1:53 AM,-9999,-9999,N/A,30.20,9.0,SE,3.5,-,N/A,,Clear,130,2013-01-08 09:53:00
2:42 AM,-9999,-9999,N/A,30.20,9.0,Calm,Calm,-,N/A,,Partly Cloudy,0,2013-01-08 10:42:00
2:53 AM,-9999,-9999,N/A,30.19,9.0,SE,3.5,-,N/A,,Partly Cloudy,130,2013-01-08 10:53:00
3:53 AM,-9999,-9999,N/A,30.19,9.0,Calm,Calm,-,N/A,,Clear,0,2013-01-08 11:53:00
4:53 AM,-9999,-9999,N/A,30.19,7.0,Calm,Calm,-,N/A,,Clear,0,2013-01-08 12:53:00
5:53 AM,43.5,41.4,92,30.19,8.0,Calm,Calm,-,N/A,,Clear,0,2013-01-08 13:53:00
6:43 AM,42.8,41.0,93,30.20,8.0,Calm,Calm,-,N/A,,Scattered Clouds,0,2013-01-08 14:43:00
6:49 AM,42.8,41.0,93,30.20,2.0,Calm,Calm,-,N/A,,Mostly Cloudy,0,2013-01-08 14:49:00
6:53 AM,43.0,41.7,95,30.20,2.0,Calm,Calm,-,N/A,,Mostly Cloudy,0,2013-01-08 14:53:00
7:05 AM,42.8,41.0,93,30.20,1.2,NNE,3.5,-,N/A,,Mostly Cloudy,20,2013-01-08 15:05:00
7:53 AM,42.6,42.1,98,30.22,1.0,NNE,3.5,-,N/A,,Mist,30,2013-01-08 15:53:00
7:56 AM,42.8,42.8,100,30.22,0.8,Calm,Calm,-,N/A,,Mist,0,2013-01-08 15:56:00
8:21 AM,42.8,42.8,100,30.24,0.2,Calm,Calm,-,N/A,Fog,Fog,0,2013-01-08 16:21:00
8:53 AM,46.0,46.0,100,30.24,0.2,Calm,Calm,-,N/A,Fog,Fog,0,2013-01-08 16:53:00
9:41 AM,46.4,46.4,100,30.24,0.2,Calm,Calm,-,N/A,Fog,Fog,0,2013-01-08 17:41:00
9:53 AM,46.9,46.9,100,30.25,0.5,Calm,Calm,-,N/A,Fog,Fog,0,2013-01-08 17:53:00
10:12 AM,46.4,46.4,100,30.24,1.0,Calm,Calm,-,N/A,,Overcast,0,2013-01-08 18:12:00
10:51 AM,48.2,46.4,93,30.23,2.5,Calm,Calm,-,N/A,,Scattered Clouds,0,2013-01-08 18:51:00
10:53 AM,48.0,46.9,96,30.23,2.5,Calm,Calm,-,N/A,,Partly Cloudy,0,2013-01-08 18:53:00
11:10 AM,48.2,46.4,93,30.22,3.0,Calm,Calm,-,N/A,,Partly Cloudy,0,2013-01-08 19:10:00
11:53 AM,54.0,46.0,75,30.19,10.0,NW,3.5,-,N/A,,Clear,320,2013-01-08 19:53:00
12:53 PM,57.9,46.0,65,30.17,10.0,Calm,Calm,-,N/A,,Clear,0,2013-01-08 20:53:00
1:53 PM,61.0,45.0,56,30.15,10.0,NW,5.8,-,N/A,,Clear,310,2013-01-08 21:53:00
2:53 PM,61.0,45.0,56,30.15,10.0,WNW,8.1,-,N/A,,Clear,300,2013-01-08 22:53:00
3:53 PM,60.1,45.0,57,30.14,10.0,West,6.9,-,N/A,,Clear,270,2013-01-08 23:53:00
4:53 PM,57.9,44.1,60,30.13,10.0,West,6.9,-,N/A,,Clear,260,2013-01-09 00:53:00
5:53 PM,57.0,43.0,59,30.13,10.0,West,3.5,-,N/A,,Clear,260,2013-01-09 01:53:00
6:53 PM,52.0,43.0,71,30.14,10.0,West,4.6,-,N/A,,Clear,260,2013-01-09 02:53:00
7:53 PM,53.1,43.0,69,30.16,10.0,Calm,Calm,-,N/A,,Clear,0,2013-01-09 03:53:00
8:53 PM,50.0,43.0,77,30.15,10.0,Calm,Calm,-,N/A,,Clear,0,2013-01-09 04:53:00
9:53 PM,49.6,42.1,75,30.16,10.0,Calm,Calm,-,N/A,,Clear,0,2013-01-09 05:53:00
10:53 PM,49.6,41.0,72,30.15,10.0,Calm,Calm,-,N/A,,Clear,0,2013-01-09 06:53:00
11:53 PM,47.1,41.0,79,30.16,10.0,Calm,Calm,-,N/A,,Clear,0,2013-01-09 07:53:00